• In Germany
  • List of Countries
  • For 7 days
  • Water Temperature
  • Satellite Maps
  • Weather Map
  • Weather Widgets
  • user-avatar
    Login

    Hourly Weather Andora

    Today, 29 April, Saturday

    Time Temperature Precipitation Wind Pressure Humidity
    00:00 -6°C° 0 mm 0 mps 619 mmHg 90%
    01:00 -6°C° 0 mm 0 mps 619 mmHg 89%
    02:00 -6°C° 0 mm 0 mps 619 mmHg 89%
    03:00 -6°C° 0 mm 0 mps 619 mmHg 88%
    04:00 -4°C° 0 mm 0 mps 619 mmHg 83%
    05:00 -2°C° 0 mm 1 mps 620 mmHg 78%
    06:00 0°C° 0 mm 1 mps 621 mmHg 72%
    07:00 +2°C° 0 mm 1 mps 621 mmHg 64%
    08:00 +4°C° 0 mm 2 mps 622 mmHg 55%
    09:00 +6°C° 0 mm 2 mps 623 mmHg 47%
    10:00 +7°C° 0 mm 2 mps 623 mmHg 44%
    11:00 +9°C° 0 mm 3 mps 623 mmHg 42%
    12:00 +10°C° 0 mm 3 mps 623 mmHg 40%
    13:00 +10°C° 0 mm 3 mps 623 mmHg 42%
    14:00 +8°C° 0 mm 4 mps 623 mmHg 44%
    15:00 +8°C° 0 mm 4 mps 623 mmHg 46%
    16:00 +8°C° 0 mm 3 mps 622 mmHg 56%
    17:00 +5°C° 0 mm 3 mps 621 mmHg 67%
    18:00 +4°C° 0 mm 2 mps 620 mmHg 77%
    19:00 +3°C° 0 mm 2 mps 620 mmHg 82%
    20:00 +2°C° 0 mm 2 mps 619 mmHg 88%
    21:00 -1°C° 0 mm 2 mps 619 mmHg 93%
    22:00 -1°C° 0 mm 2 mps 619 mmHg 92%
    23:00 +1°C° 0 mm 2 mps 619 mmHg 92%

    Tomorrow, 30 April, Sunday

    Time Temperature Precipitation Wind Pressure Humidity
    00:00 +1°C° 0 mm 2 mps 619 mmHg 91%
    01:00 +1°C° 0 mm 2 mps 619 mmHg 91%
    02:00 +1°C° 0 mm 2 mps 618 mmHg 91%
    03:00 +1°C° 0 mm 2 mps 618 mmHg 91%
    04:00 +1°C° 0.1 mm 2 mps 618 mmHg 89%
    05:00 +2°C° 0.1 mm 2 mps 618 mmHg 88%
    06:00 +2°C° 0.1 mm 2 mps 619 mmHg 86%
    07:00 +3°C° 0.1 mm 3 mps 619 mmHg 80%
    08:00 +5°C° 0.1 mm 3 mps 619 mmHg 75%
    09:00 +7°C° 0.1 mm 3 mps 620 mmHg 69%
    10:00 +8°C° 0.1 mm 3 mps 620 mmHg 64%
    11:00 +9°C° 0.1 mm 3 mps 620 mmHg 59%
    12:00 +10°C° 0.1 mm 4 mps 620 mmHg 55%
    13:00 +10°C° 0.2 mm 4 mps 620 mmHg 58%
    14:00 +8°C° 0.2 mm 4 mps 619 mmHg 62%
    15:00 +8°C° 0.2 mm 4 mps 619 mmHg 65%
    16:00 +7°C° 0.3 mm 3 mps 619 mmHg 73%
    17:00 +4°C° 0.3 mm 3 mps 619 mmHg 80%
    18:00 +2°C° 0.3 mm 3 mps 619 mmHg 87%
    19:00 +2°C° 0.2 mm 2 mps 619 mmHg 89%
    20:00 +1°C° 0.2 mm 2 mps 619 mmHg 91%
    21:00 +1°C° 0.2 mm 1 mps 619 mmHg 93%
    22:00 0°C° 0.1 mm 1 mps 620 mmHg 92%
    23:00 0°C° 0.1 mm 1 mps 620 mmHg 92%

    Day after tomorrow, 1 May, Monday

    Time Temperature Precipitation Wind Pressure Humidity
    00:00 -2°C° 0.1 mm 2 mps 620 mmHg 92%
    01:00 -3°C° 0 mm 2 mps 620 mmHg 92%
    02:00 -3°C° 0 mm 2 mps 620 mmHg 92%
    03:00 -4°C° 0 mm 2 mps 620 mmHg 92%
    04:00 -3°C° 0 mm 2 mps 621 mmHg 89%
    05:00 -3°C° 0 mm 2 mps 622 mmHg 86%
    06:00 -3°C° 0 mm 2 mps 622 mmHg 83%
    07:00 -1°C° 0 mm 2 mps 623 mmHg 74%
    08:00 +2°C° 0 mm 2 mps 624 mmHg 64%
    09:00 +3°C° 0 mm 3 mps 625 mmHg 55%
    10:00 +5°C° 0 mm 2 mps 626 mmHg 52%
    11:00 +7°C° 0 mm 2 mps 626 mmHg 49%
    12:00 +8°C° 0 mm 2 mps 627 mmHg 46%
    13:00 +8°C° 0 mm 2 mps 627 mmHg 48%
    14:00 +7°C° 0 mm 2 mps 627 mmHg 50%
    15:00 +7°C° 0 mm 2 mps 627 mmHg 52%
    16:00 +6°C° 0 mm 2 mps 626 mmHg 58%
    17:00 +5°C° 0 mm 2 mps 626 mmHg 64%
    18:00 +6°C° 0 mm 1 mps 626 mmHg 70%
    19:00 +4°C° 0 mm 1 mps 625 mmHg 78%
    20:00 +1°C° 0 mm 1 mps 625 mmHg 85%
    21:00 -1°C° 0 mm 1 mps 625 mmHg 92%
    22:00 -1°C° 0 mm 1 mps 624 mmHg 92%
    23:00 -1°C° 0 mm 1 mps 624 mmHg 91%

    2 May, Tuesday

    Time Temperature Precipitation Wind Pressure Humidity
    00:00 -1°C° 0 mm 1 mps 624 mmHg 91%
    01:00 -1°C° 0 mm 1 mps 624 mmHg 89%
    02:00 0°C° 0 mm 1 mps 624 mmHg 87%
    03:00 0°C° 0 mm 1 mps 624 mmHg 86%
    04:00 +1°C° 0 mm 1 mps 624 mmHg 81%
    05:00 +2°C° 0 mm 1 mps 625 mmHg 76%
    06:00 +4°C° 0 mm 1 mps 625 mmHg 71%
    07:00 +6°C° 0 mm 1 mps 626 mmHg 65%
    08:00 +8°C° 0 mm 1 mps 627 mmHg 58%
    09:00 +10°C° 0 mm 1 mps 627 mmHg 51%
    10:00 +10°C° 0 mm 2 mps 627 mmHg 51%
    11:00 +12°C° 0 mm 2 mps 627 mmHg 50%
    12:00 +11°C° 0 mm 3 mps 627 mmHg 50%
    13:00 +11°C° 0.1 mm 3 mps 627 mmHg 52%
    14:00 +11°C° 0.1 mm 3 mps 626 mmHg 55%
    15:00 +11°C° 0.1 mm 3 mps 626 mmHg 58%
    16:00 +10°C° 0.1 mm 2 mps 625 mmHg 63%
    17:00 +9°C° 0.1 mm 2 mps 625 mmHg 69%
    18:00 +8°C° 0.1 mm 2 mps 625 mmHg 75%
    19:00 +7°C° 0 mm 1 mps 624 mmHg 80%
    20:00 +6°C° 0 mm 1 mps 624 mmHg 86%
    21:00 +4°C° 0 mm 1 mps 624 mmHg 92%
    22:00 +4°C° 0 mm 1 mps 624 mmHg 92%
    23:00 +3°C° 0 mm 1 mps 623 mmHg 93%

    3 May, Wednesday

    Time Temperature Precipitation Wind Pressure Humidity
    00:00 +2°C° 0 mm 1 mps 623 mmHg 94%
    01:00 +2°C° 0 mm 1 mps 623 mmHg 94%
    02:00 +2°C° 0 mm 1 mps 622 mmHg 94%
    03:00 +1°C° 0 mm 1 mps 622 mmHg 94%
    04:00 +3°C° 0 mm 1 mps 623 mmHg 92%
    05:00 +4°C° 0 mm 1 mps 624 mmHg 89%
    06:00 +5°C° 0 mm 1 mps 624 mmHg 87%
    07:00 +7°C° 0 mm 1 mps 625 mmHg 79%
    08:00 +9°C° 0 mm 1 mps 626 mmHg 71%
    09:00 +10°C° 0 mm 1 mps 626 mmHg 63%
    10:00 +11°C° 0 mm 1 mps 626 mmHg 63%
    11:00 +10°C° 0 mm 2 mps 626 mmHg 63%
    12:00 +10°C° 0 mm 2 mps 626 mmHg 62%
    13:00 +10°C° 0.2 mm 2 mps 626 mmHg 64%
    14:00 +10°C° 0.2 mm 2 mps 625 mmHg 66%
    15:00 +11°C° 0.2 mm 1 mps 625 mmHg 68%
    16:00 +10°C° 0.2 mm 1 mps 625 mmHg 73%
    17:00 +9°C° 0.2 mm 1 mps 624 mmHg 78%
    18:00 +9°C° 0.2 mm 1 mps 624 mmHg 83%
    19:00 +7°C° 0.1 mm 1 mps 624 mmHg 87%
    20:00 +6°C° 0.1 mm 1 mps 623 mmHg 91%
    21:00 +4°C° 0.1 mm 1 mps 623 mmHg 95%
    22:00 +4°C° 0 mm 1 mps 623 mmHg 96%
    23:00 +3°C° 0 mm 0 mps 623 mmHg 96%

    4 May, Thursday

    Time Temperature Precipitation Wind Pressure Humidity
    00:00 +2°C° 0 mm 0 mps 623 mmHg 96%
    01:00 +2°C° 0 mm 0 mps 622 mmHg 96%
    02:00 +2°C° 0 mm 0 mps 622 mmHg 96%
    03:00 +1°C° 0 mm 0 mps 621 mmHg 96%
    04:00 +4°C° 0 mm 1 mps 622 mmHg 95%
    05:00 +5°C° 0 mm 1 mps 622 mmHg 93%
    06:00 +6°C° 0 mm 1 mps 623 mmHg 92%
    07:00 +8°C° 0 mm 1 mps 623 mmHg 82%
    08:00 +10°C° 0 mm 1 mps 624 mmHg 72%
    09:00 +12°C° 0 mm 1 mps 625 mmHg 61%
    10:00 +13°C° 0 mm 2 mps 625 mmHg 57%
    11:00 +14°C° 0 mm 2 mps 625 mmHg 52%
    12:00 +16°C° 0 mm 2 mps 625 mmHg 47%
    13:00 +14°C° 0 mm 3 mps 625 mmHg 49%
    14:00 +14°C° 0 mm 3 mps 624 mmHg 50%
    15:00 +14°C° 0 mm 3 mps 624 mmHg 52%
    16:00 +14°C° 0 mm 2 mps 623 mmHg 58%
    17:00 +13°C° 0 mm 2 mps 623 mmHg 65%
    18:00 +12°C° 0 mm 2 mps 622 mmHg 71%
    19:00 +9°C° 0 mm 2 mps 622 mmHg 78%
    20:00 +7°C° 0 mm 2 mps 621 mmHg 84%
    21:00 +6°C° 0 mm 2 mps 621 mmHg 91%
    22:00 +6°C° 0 mm 2 mps 621 mmHg 89%
    23:00 +6°C° 0 mm 2 mps 620 mmHg 87%
    Show more